Time,TemperatureF,DewpointF,PressureIn,WindDirection,WindDirectionDegrees,WindSpeedMPH,WindSpeedGustMPH,Humidity,HourlyPrecipIn,Conditions,Clouds,dailyrainin,SoftwareType,DateUTC
2013-04-24 00:00:00,23.4,18.0,25.87,WNW,292,3.0,5.4,87,0.00,,,0.00,Rainwise IP-100,2013-04-24 06:00:00,
2013-04-24 00:05:00,23.1,18.0,25.86,WNW,292,5.1,5.1,87,0.00,,,0.00,Rainwise IP-100,2013-04-24 06:05:00,
2013-04-24 00:10:00,22.9,21.0,25.87,WNW,292,5.4,6.5,88,0.00,,,0.00,Rainwise IP-100,2013-04-24 06:10:00,
2013-04-24 00:15:00,22.9,21.0,25.86,NW,315,5.8,6.1,88,0.00,,,0.00,Rainwise IP-100,2013-04-24 06:15:00,
2013-04-24 00:20:00,22.9,21.0,25.86,West,270,2.6,7.0,88,0.00,,,0.00,Rainwise IP-100,2013-04-24 06:20:00,
2013-04-24 00:25:00,22.7,21.0,25.86,WNW,292,4.7,5.4,88,0.00,,,0.00,Rainwise IP-100,2013-04-24 06:25:00,
2013-04-24 00:30:00,22.3,21.0,25.86,WNW,292,4.2,4.9,88,0.00,,,0.00,Rainwise IP-100,2013-04-24 06:30:00,
2013-04-24 00:35:00,22.3,21.0,25.86,WNW,292,6.1,6.1,89,0.00,,,0.00,Rainwise IP-100,2013-04-24 06:35:00,
2013-04-24 00:41:00,22.8,21.0,25.86,WNW,292,3.5,6.5,90,0.00,,,0.00,Rainwise IP-100,2013-04-24 06:41:00,
2013-04-24 00:46:00,23.1,21.0,25.86,WNW,292,4.2,6.3,90,0.00,,,0.00,Rainwise IP-100,2013-04-24 06:46:00,
2013-04-24 00:51:00,23.2,21.0,25.86,WNW,292,4.9,6.8,90,0.00,,,0.00,Rainwise IP-100,2013-04-24 06:51:00,
2013-04-24 00:56:00,23.1,21.0,25.86,WNW,292,4.2,5.4,90,0.00,,,0.00,Rainwise IP-100,2013-04-24 06:56:00,
2013-04-24 01:01:00,23.2,21.0,25.85,WNW,292,3.7,5.8,90,0.00,,,0.00,Rainwise IP-100,2013-04-24 07:01:00,
2013-04-24 01:06:00,23.4,21.0,25.85,West,270,3.7,6.5,90,0.00,,,0.00,Rainwise IP-100,2013-04-24 07:06:00,
2013-04-24 01:11:00,23.3,21.0,25.85,West,270,2.8,5.1,90,0.00,,,0.00,Rainwise IP-100,2013-04-24 07:11:00,
2013-04-24 01:16:00,23.1,21.0,25.84,WNW,292,4.9,4.9,90,0.00,,,0.00,Rainwise IP-100,2013-04-24 07:16:00,
2013-04-24 01:21:00,22.8,21.0,25.84,WSW,247,2.6,4.9,90,0.00,,,0.00,Rainwise IP-100,2013-04-24 07:21:00,
2013-04-24 01:26:00,22.6,21.0,25.84,West,270,2.1,5.8,90,0.00,,,0.00,Rainwise IP-100,2013-04-24 07:26:00,
2013-04-24 01:31:00,22.4,21.0,25.84,West,270,2.3,5.1,90,0.00,,,0.00,Rainwise IP-100,2013-04-24 07:31:00,
2013-04-24 01:36:00,22.3,21.0,25.84,West,270,3.5,4.9,91,0.00,,,0.00,Rainwise IP-100,2013-04-24 07:36:00,
2013-04-24 01:41:00,22.4,21.0,25.84,West,270,6.1,7.7,91,0.00,,,0.00,Rainwise IP-100,2013-04-24 07:41:00,
2013-04-24 01:46:00,22.9,21.0,25.85,WSW,247,6.1,8.6,91,0.00,,,0.00,Rainwise IP-100,2013-04-24 07:46:00,
2013-04-24 01:51:00,23.8,23.0,25.85,West,270,7.7,11.7,90,0.00,,,0.00,Rainwise IP-100,2013-04-24 07:51:00,
2013-04-24 01:56:00,24.7,24.0,25.85,WSW,247,13.1,14.2,90,0.00,,,0.00,Rainwise IP-100,2013-04-24 07:56:00,
2013-04-24 02:01:00,25.2,23.0,25.84,WSW,247,8.6,14.2,89,0.00,,,0.00,Rainwise IP-100,2013-04-24 08:01:00,
2013-04-24 02:06:00,25.0,23.0,25.85,WSW,247,7.9,14.2,89,0.00,,,0.00,Rainwise IP-100,2013-04-24 08:06:00,
2013-04-24 02:11:00,24.8,23.0,25.85,WSW,247,7.0,13.8,89,0.00,,,0.00,Rainwise IP-100,2013-04-24 08:11:00,
2013-04-24 02:16:00,24.8,23.0,25.85,West,270,9.6,13.5,88,0.00,,,0.00,Rainwise IP-100,2013-04-24 08:16:00,
2013-04-24 02:21:00,24.8,23.0,25.84,WNW,292,8.2,12.4,88,0.00,,,0.00,Rainwise IP-100,2013-04-24 08:21:00,
2013-04-24 02:26:00,24.9,23.0,25.84,West,270,8.9,11.7,87,0.00,,,0.00,Rainwise IP-100,2013-04-24 08:26:00,
2013-04-24 02:31:00,24.9,23.0,25.84,WSW,247,7.5,11.9,87,0.00,,,0.00,Rainwise IP-100,2013-04-24 08:31:00,
2013-04-24 02:36:00,24.8,23.0,25.84,WSW,247,7.0,11.2,87,0.00,,,0.00,Rainwise IP-100,2013-04-24 08:36:00,
2013-04-24 02:41:00,24.7,23.0,25.84,West,270,5.8,10.0,87,0.00,,,0.00,Rainwise IP-100,2013-04-24 08:41:00,
2013-04-24 02:46:00,24.7,23.0,25.84,WSW,247,8.4,9.8,87,0.00,,,0.00,Rainwise IP-100,2013-04-24 08:46:00,
2013-04-24 02:51:00,24.7,23.0,25.84,WSW,247,9.3,10.5,86,0.00,,,0.00,Rainwise IP-100,2013-04-24 08:51:00,
2013-04-24 02:56:00,24.8,23.0,25.84,WSW,247,5.8,13.1,86,0.00,,,0.00,Rainwise IP-100,2013-04-24 08:56:00,
2013-04-24 03:01:00,25.0,23.0,25.84,WSW,247,7.0,14.5,86,0.00,,,0.00,Rainwise IP-100,2013-04-24 09:01:00,
2013-04-24 03:06:00,25.0,23.0,25.84,WSW,247,9.1,13.8,86,0.00,,,0.00,Rainwise IP-100,2013-04-24 09:06:00,
2013-04-24 03:11:00,25.0,23.0,25.83,WSW,247,9.3,14.0,85,0.00,,,0.00,Rainwise IP-100,2013-04-24 09:11:00,
2013-04-24 03:16:00,25.0,23.0,25.83,WSW,247,9.8,13.8,85,0.00,,,0.00,Rainwise IP-100,2013-04-24 09:16:00,
2013-04-24 03:21:00,25.0,23.0,25.84,WSW,247,11.2,13.1,85,0.00,,,0.00,Rainwise IP-100,2013-04-24 09:21:00,
2013-04-24 03:26:00,25.1,23.0,25.83,WSW,247,5.4,14.5,85,0.00,,,0.00,Rainwise IP-100,2013-04-24 09:26:00,
2013-04-24 03:28:00,25.1,23.0,25.83,WSW,247,9.3,13.1,85,0.00,,,0.00,Rainwise IP-100,2013-04-24 09:28:00,
2013-04-24 03:32:00,25.1,23.0,25.83,West,270,6.3,13.1,85,0.00,,,0.00,Rainwise IP-100,2013-04-24 09:32:00,
2013-04-24 03:37:00,25.1,23.0,25.83,WSW,247,10.0,14.0,85,0.00,,,0.00,Rainwise IP-100,2013-04-24 09:37:00,
2013-04-24 03:42:00,25.1,23.0,25.83,WSW,247,12.4,13.1,85,0.00,,,0.00,Rainwise IP-100,2013-04-24 09:42:00,
2013-04-24 03:47:00,25.1,23.0,25.83,WSW,247,10.7,13.8,85,0.00,,,0.00,Rainwise IP-100,2013-04-24 09:47:00,
2013-04-24 03:52:00,25.3,23.0,25.83,WSW,247,10.5,16.6,85,0.00,,,0.00,Rainwise IP-100,2013-04-24 09:52:00,
2013-04-24 03:57:00,25.2,23.0,25.83,WSW,247,6.8,13.5,85,0.00,,,0.00,Rainwise IP-100,2013-04-24 09:57:00,
2013-04-24 04:02:00,25.0,23.0,25.83,WSW,247,7.9,14.9,85,0.00,,,0.00,Rainwise IP-100,2013-04-24 10:02:00,
2013-04-24 04:07:00,25.0,23.0,25.83,WSW,247,7.9,12.1,85,0.00,,,0.00,Rainwise IP-100,2013-04-24 10:07:00,
2013-04-24 04:12:00,24.9,23.0,25.83,WSW,247,12.1,12.8,85,0.00,,,0.00,Rainwise IP-100,2013-04-24 10:12:00,
2013-04-24 04:17:00,24.9,23.0,25.82,WSW,247,6.8,14.0,85,0.00,,,0.00,Rainwise IP-100,2013-04-24 10:17:00,
2013-04-24 04:22:00,25.0,23.0,25.83,West,270,4.2,13.3,85,0.00,,,0.00,Rainwise IP-100,2013-04-24 10:22:00,
2013-04-24 04:27:00,25.0,23.0,25.82,WSW,247,4.2,11.7,85,0.00,,,0.00,Rainwise IP-100,2013-04-24 10:27:00,
2013-04-24 04:32:00,24.7,23.0,25.82,West,270,5.6,9.1,85,0.00,,,0.00,Rainwise IP-100,2013-04-24 10:32:00,
2013-04-24 04:37:00,24.5,23.0,25.82,West,270,3.7,11.7,85,0.00,,,0.00,Rainwise IP-100,2013-04-24 10:37:00,
2013-04-24 04:42:00,24.3,21.0,25.82,West,270,6.3,9.8,86,0.00,,,0.00,Rainwise IP-100,2013-04-24 10:42:00,
2013-04-24 04:47:00,24.1,21.0,25.82,WNW,292,5.8,8.9,86,0.00,,,0.00,Rainwise IP-100,2013-04-24 10:47:00,
2013-04-24 04:52:00,24.0,21.0,25.82,WSW,247,5.4,10.5,86,0.00,,,0.00,Rainwise IP-100,2013-04-24 10:52:00,
2013-04-24 04:57:00,23.8,21.0,25.82,West,270,9.1,12.4,86,0.00,,,0.00,Rainwise IP-100,2013-04-24 10:57:00,
2013-04-24 05:02:00,23.9,21.0,25.82,WSW,247,10.5,13.1,86,0.00,,,0.00,Rainwise IP-100,2013-04-24 11:02:00,
2013-04-24 05:07:00,23.8,21.0,25.82,WSW,247,7.0,13.3,86,0.00,,,0.00,Rainwise IP-100,2013-04-24 11:07:00,
2013-04-24 05:12:00,23.6,21.0,25.82,WSW,247,4.7,11.4,86,0.00,,,0.00,Rainwise IP-100,2013-04-24 11:12:00,
2013-04-24 05:17:00,23.6,21.0,25.81,WNW,292,3.7,10.3,86,0.00,,,0.00,Rainwise IP-100,2013-04-24 11:17:00,
2013-04-24 05:22:00,23.4,18.0,25.81,WNW,292,7.0,7.5,86,0.00,,,0.00,Rainwise IP-100,2013-04-24 11:22:00,
2013-04-24 05:27:00,22.7,18.0,25.80,WNW,292,5.6,8.9,86,0.00,,,0.00,Rainwise IP-100,2013-04-24 11:27:00,
2013-04-24 05:32:00,22.4,18.0,25.80,WNW,292,8.4,8.9,87,0.00,,,0.00,Rainwise IP-100,2013-04-24 11:32:00,
2013-04-24 05:37:00,22.5,18.0,25.80,WNW,292,4.2,9.1,87,0.00,,,0.00,Rainwise IP-100,2013-04-24 11:37:00,
2013-04-24 05:42:00,22.7,18.0,25.81,NW,315,7.5,9.1,86,0.00,,,0.00,Rainwise IP-100,2013-04-24 11:42:00,
2013-04-24 05:47:00,22.7,18.0,25.80,NW,315,7.0,10.0,86,0.00,,,0.00,Rainwise IP-100,2013-04-24 11:47:00,
2013-04-24 05:52:00,22.5,18.0,25.81,WNW,292,5.1,8.4,86,0.00,,,0.00,Rainwise IP-100,2013-04-24 11:52:00,
2013-04-24 05:57:00,22.2,18.0,25.81,WNW,292,6.3,8.4,86,0.00,,,0.00,Rainwise IP-100,2013-04-24 11:57:00,
2013-04-24 06:02:00,21.8,18.0,25.81,WNW,292,5.4,8.2,86,0.00,,,0.00,Rainwise IP-100,2013-04-24 12:02:00,
2013-04-24 06:07:00,21.5,18.0,25.81,WNW,292,4.0,5.6,86,0.00,,,0.00,Rainwise IP-100,2013-04-24 12:07:00,
2013-04-24 06:12:00,21.5,18.0,25.81,WNW,292,4.4,6.1,86,0.00,,,0.00,Rainwise IP-100,2013-04-24 12:12:00,
2013-04-24 06:17:00,21.7,18.0,25.81,WNW,292,2.8,5.8,87,0.00,,,0.00,Rainwise IP-100,2013-04-24 12:17:00,
2013-04-24 06:22:00,21.9,18.0,25.81,WNW,292,4.4,6.1,87,0.00,,,0.00,Rainwise IP-100,2013-04-24 12:22:00,
2013-04-24 06:27:00,22.1,18.0,25.81,WNW,292,6.5,6.5,86,0.00,,,0.00,Rainwise IP-100,2013-04-24 12:27:00,
2013-04-24 06:32:00,22.4,18.0,25.81,WSW,247,3.7,6.5,86,0.00,,,0.00,Rainwise IP-100,2013-04-24 12:32:00,
2013-04-24 06:37:00,22.8,18.0,25.81,West,270,4.7,4.9,86,0.00,,,0.00,Rainwise IP-100,2013-04-24 12:37:00,
2013-04-24 06:42:00,23.4,18.0,25.82,WSW,247,4.2,6.1,86,0.00,,,0.00,Rainwise IP-100,2013-04-24 12:42:00,
2013-04-24 06:47:00,23.9,21.0,25.82,WNW,292,4.9,7.9,86,0.00,,,0.00,Rainwise IP-100,2013-04-24 12:47:00,
2013-04-24 06:52:00,24.4,21.0,25.82,WNW,292,7.2,7.2,85,0.00,,,0.00,Rainwise IP-100,2013-04-24 12:52:00,
2013-04-24 06:57:00,24.7,23.0,25.82,WNW,292,4.4,7.2,85,0.00,,,0.00,Rainwise IP-100,2013-04-24 12:57:00,
2013-04-24 07:02:00,25.0,23.0,25.82,WSW,247,5.1,6.3,85,0.00,,,0.00,Rainwise IP-100,2013-04-24 13:02:00,
2013-04-24 07:07:00,25.6,23.0,25.83,West,270,2.3,6.8,85,0.00,,,0.00,Rainwise IP-100,2013-04-24 13:07:00,
2013-04-24 07:12:00,26.3,23.0,25.83,WSW,247,5.8,7.2,84,0.00,,,0.00,Rainwise IP-100,2013-04-24 13:12:00,
2013-04-24 07:17:00,27.0,24.0,25.83,SW,225,8.4,8.6,84,0.00,,,0.00,Rainwise IP-100,2013-04-24 13:17:00,
2013-04-24 07:22:00,27.4,23.0,25.83,West,270,4.4,10.0,83,0.00,,,0.00,Rainwise IP-100,2013-04-24 13:22:00,
2013-04-24 07:27:00,27.5,23.0,25.83,WNW,292,7.0,11.4,83,0.00,,,0.00,Rainwise IP-100,2013-04-24 13:27:00,
2013-04-24 07:32:00,27.9,23.0,25.83,West,270,4.0,8.6,82,0.00,,,0.00,Rainwise IP-100,2013-04-24 13:32:00,
2013-04-24 07:37:00,28.4,23.0,25.84,WSW,247,9.8,10.5,82,0.00,,,0.00,Rainwise IP-100,2013-04-24 13:37:00,
2013-04-24 07:42:00,28.8,24.0,25.84,West,270,3.5,10.3,81,0.00,,,0.00,Rainwise IP-100,2013-04-24 13:42:00,
2013-04-24 07:47:00,29.1,24.0,25.84,West,270,2.8,9.8,81,0.00,,,0.00,Rainwise IP-100,2013-04-24 13:47:00,
2013-04-24 07:52:00,29.5,26.0,25.83,West,270,4.4,10.3,80,0.00,,,0.00,Rainwise IP-100,2013-04-24 13:52:00,
2013-04-24 07:57:00,29.9,26.0,25.84,WNW,292,5.6,8.9,80,0.00,,,0.00,Rainwise IP-100,2013-04-24 13:57:00,
2013-04-24 08:02:00,30.3,24.0,25.84,WSW,247,2.6,9.6,79,0.00,,,0.00,Rainwise IP-100,2013-04-24 14:02:00,
2013-04-24 08:07:00,30.7,24.0,25.84,West,270,6.5,9.6,78,0.00,,,0.00,Rainwise IP-100,2013-04-24 14:07:00,
2013-04-24 08:12:00,31.0,24.0,25.84,West,270,3.7,9.8,78,0.00,,,0.00,Rainwise IP-100,2013-04-24 14:12:00,
2013-04-24 08:17:00,31.4,24.0,25.83,West,270,3.5,8.2,77,0.00,,,0.00,Rainwise IP-100,2013-04-24 14:17:00,
2013-04-24 08:22:00,31.8,26.0,25.85,West,270,3.5,9.8,76,0.00,,,0.00,Rainwise IP-100,2013-04-24 14:22:00,
2013-04-24 08:27:00,32.2,26.0,25.84,WSW,247,7.9,10.0,76,0.00,,,0.00,Rainwise IP-100,2013-04-24 14:27:00,
2013-04-24 08:32:00,32.7,26.0,25.84,WSW,247,3.5,9.6,75,0.00,,,0.00,Rainwise IP-100,2013-04-24 14:32:00,
2013-04-24 08:37:00,33.2,26.0,25.84,WNW,292,4.0,9.8,75,0.00,,,0.00,Rainwise IP-100,2013-04-24 14:37:00,
2013-04-24 08:42:00,33.7,28.0,25.85,WSW,247,5.6,9.1,74,0.00,,,0.00,Rainwise IP-100,2013-04-24 14:42:00,
2013-04-24 08:47:00,34.1,28.0,25.85,WSW,247,5.1,8.6,74,0.00,,,0.00,Rainwise IP-100,2013-04-24 14:47:00,
2013-04-24 08:52:00,34.5,28.0,25.85,WNW,292,5.4,9.1,73,0.00,,,0.00,Rainwise IP-100,2013-04-24 14:52:00,
2013-04-24 08:57:00,34.8,28.0,25.85,West,270,6.1,9.3,73,0.00,,,0.00,Rainwise IP-100,2013-04-24 14:57:00,
2013-04-24 09:02:00,35.2,26.0,25.85,West,270,5.4,8.2,72,0.00,,,0.00,Rainwise IP-100,2013-04-24 15:02:00,
2013-04-24 09:09:00,36.1,28.0,25.86,WSW,247,10.3,10.7,72,0.00,,,0.00,Rainwise IP-100,2013-04-24 15:09:00,
2013-04-24 09:14:00,36.8,29.0,25.86,West,270,7.2,14.0,71,0.00,,,0.00,Rainwise IP-100,2013-04-24 15:14:00,
2013-04-24 09:19:00,37.7,29.0,25.86,West,270,9.3,18.2,68,0.00,,,0.00,Rainwise IP-100,2013-04-24 15:19:00,
2013-04-24 09:24:00,38.4,28.0,25.86,WSW,247,9.1,19.1,64,0.00,,,0.00,Rainwise IP-100,2013-04-24 15:24:00,
2013-04-24 09:29:00,39.0,28.0,25.85,WSW,247,14.9,16.6,62,0.00,,,0.00,Rainwise IP-100,2013-04-24 15:29:00,
2013-04-24 09:34:00,39.5,28.0,25.86,WSW,247,15.2,18.7,60,0.00,,,0.00,Rainwise IP-100,2013-04-24 15:34:00,
2013-04-24 09:39:00,40.0,28.0,25.85,WSW,247,10.3,20.5,58,0.00,,,0.00,Rainwise IP-100,2013-04-24 15:39:00,
2013-04-24 09:44:00,40.2,26.0,25.86,WSW,247,12.4,23.1,56,0.00,,,0.00,Rainwise IP-100,2013-04-24 15:44:00,
2013-04-24 09:49:00,40.4,26.0,25.86,WSW,247,15.2,22.9,55,0.00,,,0.00,Rainwise IP-100,2013-04-24 15:49:00,
2013-04-24 09:54:00,40.7,26.0,25.86,West,270,14.2,22.6,54,0.00,,,0.00,Rainwise IP-100,2013-04-24 15:54:00,
2013-04-24 09:59:00,41.2,26.0,25.86,WSW,247,11.0,21.7,53,0.00,,,0.00,Rainwise IP-100,2013-04-24 15:59:00,
2013-04-24 10:04:00,41.5,26.0,25.86,WSW,247,12.6,20.3,52,0.00,,,0.00,Rainwise IP-100,2013-04-24 16:04:00,
2013-04-24 10:09:00,41.7,26.0,25.86,WSW,247,12.1,18.7,51,0.00,,,0.00,Rainwise IP-100,2013-04-24 16:09:00,
2013-04-24 10:14:00,41.9,26.0,25.86,West,270,11.2,18.0,50,0.00,,,0.00,Rainwise IP-100,2013-04-24 16:14:00,
2013-04-24 10:19:00,42.2,26.0,25.86,WSW,247,16.1,16.1,50,0.00,,,0.00,Rainwise IP-100,2013-04-24 16:19:00,
2013-04-24 10:24:00,42.5,26.0,25.87,WSW,247,11.9,19.1,50,0.00,,,0.00,Rainwise IP-100,2013-04-24 16:24:00,
2013-04-24 10:29:00,42.8,26.0,25.86,WNW,292,10.3,19.6,49,0.00,,,0.00,Rainwise IP-100,2013-04-24 16:29:00,
2013-04-24 10:34:00,43.2,26.0,25.86,WSW,247,8.6,18.0,49,0.00,,,0.00,Rainwise IP-100,2013-04-24 16:34:00,
2013-04-24 10:39:00,43.6,26.0,25.86,West,270,9.8,15.6,49,0.00,,,0.00,Rainwise IP-100,2013-04-24 16:39:00,
2013-04-24 10:44:00,43.9,26.0,25.86,WSW,247,11.2,19.4,48,0.00,,,0.00,Rainwise IP-100,2013-04-24 16:44:00,
2013-04-24 10:49:00,44.1,26.0,25.87,WNW,292,9.8,16.8,48,0.00,,,0.00,Rainwise IP-100,2013-04-24 16:49:00,
2013-04-24 10:54:00,44.4,26.0,25.87,WSW,247,10.3,21.5,47,0.00,,,0.00,Rainwise IP-100,2013-04-24 16:54:00,
2013-04-24 10:59:00,45.0,26.0,25.87,WSW,247,11.4,21.9,45,0.00,,,0.00,Rainwise IP-100,2013-04-24 16:59:00,
2013-04-24 11:01:00,45.2,26.0,25.87,WSW,247,13.5,21.9,45,0.00,,,0.00,Rainwise IP-100,2013-04-24 17:01:00,
2013-04-24 11:27:00,45.5,26.0,25.87,West,270,8.9,20.5,45,0.00,,,0.00,Rainwise IP-100,2013-04-24 17:27:00,
2013-04-24 11:32:00,46.6,24.0,25.86,WSW,247,18.9,19.1,42,0.00,,,0.00,Rainwise IP-100,2013-04-24 17:32:00,
2013-04-24 11:37:00,46.7,24.0,25.86,SW,225,11.0,21.9,42,0.00,,,0.00,Rainwise IP-100,2013-04-24 17:37:00,
2013-04-24 11:42:00,47.0,24.0,25.86,WSW,247,9.3,19.4,40,0.00,,,0.00,Rainwise IP-100,2013-04-24 17:42:00,
2013-04-24 11:47:00,47.4,24.0,25.85,WSW,247,11.4,18.2,40,0.00,,,0.00,Rainwise IP-100,2013-04-24 17:47:00,
2013-04-24 11:52:00,47.6,24.0,25.85,West,270,12.6,20.1,39,0.00,,,0.00,Rainwise IP-100,2013-04-24 17:52:00,
2013-04-24 11:57:00,48.1,24.0,25.86,SW,225,14.2,18.9,37,0.00,,,0.00,Rainwise IP-100,2013-04-24 17:57:00,
2013-04-24 12:02:00,48.6,23.0,25.85,WSW,247,14.7,16.1,35,0.00,,,0.00,Rainwise IP-100,2013-04-24 18:02:00,
2013-04-24 12:07:00,48.5,21.0,25.85,WSW,247,8.9,19.4,32,0.00,,,0.00,Rainwise IP-100,2013-04-24 18:07:00,
2013-04-24 12:12:00,48.6,21.0,25.85,West,270,9.6,16.6,30,0.00,,,0.00,Rainwise IP-100,2013-04-24 18:12:00,
2013-04-24 12:17:00,49.0,18.0,25.85,WSW,247,11.9,15.6,29,0.00,,,0.00,Rainwise IP-100,2013-04-24 18:17:00,
2013-04-24 12:22:00,48.9,18.0,25.85,WSW,247,12.1,15.6,28,0.00,,,0.00,Rainwise IP-100,2013-04-24 18:22:00,
2013-04-24 12:27:00,48.9,16.0,25.85,WSW,247,6.5,21.2,27,0.00,,,0.00,Rainwise IP-100,2013-04-24 18:27:00,
2013-04-24 12:32:00,49.1,16.0,25.85,WSW,247,9.6,17.0,25,0.00,,,0.00,Rainwise IP-100,2013-04-24 18:32:00,
2013-04-24 12:37:00,49.3,16.0,25.85,WSW,247,7.0,18.4,25,0.00,,,0.00,Rainwise IP-100,2013-04-24 18:37:00,
2013-04-24 12:42:00,49.5,16.0,25.85,WSW,247,8.4,15.9,25,0.00,,,0.00,Rainwise IP-100,2013-04-24 18:42:00,
2013-04-24 12:47:00,49.8,16.0,25.84,WSW,247,16.3,18.0,25,0.00,,,0.00,Rainwise IP-100,2013-04-24 18:47:00,
2013-04-24 12:52:00,49.9,16.0,25.84,WSW,247,9.8,16.8,25,0.00,,,0.00,Rainwise IP-100,2013-04-24 18:52:00,
2013-04-24 12:57:00,49.8,16.0,25.84,WSW,247,5.1,19.8,24,0.00,,,0.00,Rainwise IP-100,2013-04-24 18:57:00,
2013-04-24 13:02:00,50.0,16.0,25.85,SW,225,11.4,18.9,25,0.00,,,0.00,Rainwise IP-100,2013-04-24 19:02:00,
2013-04-24 13:07:00,50.3,16.0,25.85,WSW,247,13.8,18.9,24,0.00,,,0.00,Rainwise IP-100,2013-04-24 19:07:00,
2013-04-24 13:12:00,50.3,16.0,25.84,WSW,247,13.3,17.7,23,0.00,,,0.00,Rainwise IP-100,2013-04-24 19:12:00,
2013-04-24 13:17:00,50.5,16.0,25.85,WSW,247,7.0,20.1,23,0.00,,,0.00,Rainwise IP-100,2013-04-24 19:17:00,
2013-04-24 13:22:00,50.8,16.0,25.84,WSW,247,13.1,21.0,23,0.00,,,0.00,Rainwise IP-100,2013-04-24 19:22:00,
2013-04-24 13:27:00,51.0,16.0,25.85,WSW,247,8.4,16.3,23,0.00,,,0.00,Rainwise IP-100,2013-04-24 19:27:00,
2013-04-24 13:32:00,51.1,14.0,25.85,SW,225,10.7,16.6,22,0.00,,,0.00,Rainwise IP-100,2013-04-24 19:32:00,
2013-04-24 13:37:00,51.2,14.0,25.85,West,270,8.4,19.8,21,0.00,,,0.00,Rainwise IP-100,2013-04-24 19:37:00,
2013-04-24 13:42:00,51.5,14.0,25.85,WSW,247,13.1,14.7,21,0.00,,,0.00,Rainwise IP-100,2013-04-24 19:42:00,
2013-04-24 13:47:00,51.9,14.0,25.84,WSW,247,17.5,19.8,21,0.00,,,0.00,Rainwise IP-100,2013-04-24 19:47:00,
2013-04-24 13:52:00,52.1,14.0,25.85,SW,225,11.9,17.7,21,0.00,,,0.00,Rainwise IP-100,2013-04-24 19:52:00,
2013-04-24 13:57:00,51.9,14.0,25.85,West,270,8.6,16.1,21,0.00,,,0.00,Rainwise IP-100,2013-04-24 19:57:00,
2013-04-24 14:02:00,51.8,14.0,25.85,SSW,202,7.0,12.1,21,0.00,,,0.00,Rainwise IP-100,2013-04-24 20:02:00,
2013-04-24 14:07:00,52.1,14.0,25.84,SSW,202,7.5,10.7,21,0.00,,,0.00,Rainwise IP-100,2013-04-24 20:07:00,
2013-04-24 14:12:00,52.3,16.0,25.85,WSW,247,9.1,18.2,22,0.00,,,0.00,Rainwise IP-100,2013-04-24 20:12:00,
2013-04-24 14:17:00,52.4,16.0,25.85,SSW,202,2.8,12.6,22,0.00,,,0.00,Rainwise IP-100,2013-04-24 20:17:00,
2013-04-24 14:22:00,53.0,16.0,25.85,West,270,6.5,19.1,22,0.00,,,0.00,Rainwise IP-100,2013-04-24 20:22:00,
2013-04-24 14:27:00,53.5,16.0,25.84,WNW,292,5.1,14.2,22,0.00,,,0.00,Rainwise IP-100,2013-04-24 20:27:00,
2013-04-24 14:33:00,53.5,16.0,25.85,WNW,292,8.4,17.5,21,0.00,,,0.00,Rainwise IP-100,2013-04-24 20:33:00,
2013-04-24 14:38:00,53.3,16.0,25.85,WNW,292,11.4,15.4,21,0.00,,,0.00,Rainwise IP-100,2013-04-24 20:38:00,
2013-04-24 14:43:00,53.3,16.0,25.85,WNW,292,8.9,16.3,21,0.00,,,0.00,Rainwise IP-100,2013-04-24 20:43:00,
2013-04-24 14:48:00,53.1,14.0,25.84,WSW,247,7.2,15.4,21,0.00,,,0.00,Rainwise IP-100,2013-04-24 20:48:00,
2013-04-24 14:53:00,53.0,14.0,25.85,West,270,5.4,12.4,21,0.00,,,0.00,Rainwise IP-100,2013-04-24 20:53:00,
2013-04-24 14:58:00,53.3,16.0,25.85,WNW,292,6.3,13.8,21,0.00,,,0.00,Rainwise IP-100,2013-04-24 20:58:00,
2013-04-24 15:03:00,53.3,16.0,25.85,WSW,247,13.3,15.4,21,0.00,,,0.00,Rainwise IP-100,2013-04-24 21:03:00,
2013-04-24 15:08:00,53.2,14.0,25.85,WNW,292,7.9,19.4,21,0.00,,,0.00,Rainwise IP-100,2013-04-24 21:08:00,
2013-04-24 15:13:00,53.1,14.0,25.84,NNW,337,8.6,11.2,21,0.00,,,0.00,Rainwise IP-100,2013-04-24 21:13:00,
2013-04-24 15:18:00,53.3,16.0,25.85,WNW,292,4.4,11.7,21,0.00,,,0.00,Rainwise IP-100,2013-04-24 21:18:00,
2013-04-24 15:23:00,53.5,14.0,25.84,North,360,3.3,6.5,20,0.00,,,0.00,Rainwise IP-100,2013-04-24 21:23:00,
2013-04-24 15:28:00,53.7,14.0,25.84,WNW,292,9.3,9.3,20,0.00,,,0.00,Rainwise IP-100,2013-04-24 21:28:00,
2013-04-24 15:33:00,53.9,14.0,25.84,WNW,292,11.7,14.7,20,0.00,,,0.00,Rainwise IP-100,2013-04-24 21:33:00,
2013-04-24 15:38:00,54.0,14.0,25.84,WNW,292,3.7,15.6,20,0.00,,,0.00,Rainwise IP-100,2013-04-24 21:38:00,
2013-04-24 15:43:00,54.2,14.0,25.83,WNW,292,11.9,15.4,20,0.00,,,0.00,Rainwise IP-100,2013-04-24 21:43:00,
2013-04-24 15:48:00,54.2,14.0,25.83,WSW,247,8.4,16.6,19,0.00,,,0.00,Rainwise IP-100,2013-04-24 21:48:00,
2013-04-24 15:53:00,53.9,14.0,25.83,WSW,247,5.4,17.5,19,0.00,,,0.00,Rainwise IP-100,2013-04-24 21:53:00,
2013-04-24 15:58:00,53.8,14.0,25.83,WSW,247,9.8,12.1,19,0.00,,,0.00,Rainwise IP-100,2013-04-24 21:58:00,
2013-04-24 16:03:00,54.3,16.0,25.83,WSW,247,11.4,19.6,20,0.00,,,0.00,Rainwise IP-100,2013-04-24 22:03:00,
2013-04-24 16:08:00,54.3,16.0,25.83,WNW,292,6.3,15.2,20,0.00,,,0.00,Rainwise IP-100,2013-04-24 22:08:00,
2013-04-24 16:13:00,54.0,14.0,25.83,SW,225,8.6,13.3,20,0.00,,,0.00,Rainwise IP-100,2013-04-24 22:13:00,
2013-04-24 16:18:00,54.4,16.0,25.83,WSW,247,7.9,12.6,20,0.00,,,0.00,Rainwise IP-100,2013-04-24 22:18:00,
2013-04-24 16:23:00,54.9,16.0,25.83,WNW,292,7.0,12.4,20,0.00,,,0.00,Rainwise IP-100,2013-04-24 22:23:00,
2013-04-24 16:28:00,54.8,14.0,25.83,West,270,3.7,9.8,19,0.00,,,0.00,Rainwise IP-100,2013-04-24 22:28:00,
2013-04-24 16:33:00,54.9,14.0,25.83,WSW,247,6.8,12.1,19,0.00,,,0.00,Rainwise IP-100,2013-04-24 22:33:00,
2013-04-24 16:38:00,55.1,14.0,25.83,WSW,247,1.4,10.0,19,0.00,,,0.00,Rainwise IP-100,2013-04-24 22:38:00,
2013-04-24 16:43:00,55.0,14.0,25.83,NNW,337,6.5,11.9,19,0.00,,,0.00,Rainwise IP-100,2013-04-24 22:43:00,
2013-04-24 16:48:00,54.8,14.0,25.83,West,270,3.0,14.7,19,0.00,,,0.00,Rainwise IP-100,2013-04-24 22:48:00,
2013-04-24 16:53:00,54.7,16.0,25.83,NNW,337,7.5,8.6,20,0.00,,,0.00,Rainwise IP-100,2013-04-24 22:53:00,
2013-04-24 16:58:00,55.1,14.0,25.83,SSW,202,6.3,8.4,19,0.00,,,0.00,Rainwise IP-100,2013-04-24 22:58:00,
2013-04-24 17:03:00,55.4,16.0,25.82,West,270,3.5,7.0,20,0.00,,,0.00,Rainwise IP-100,2013-04-24 23:03:00,
2013-04-24 17:08:00,55.4,16.0,25.83,WSW,247,5.4,8.9,20,0.00,,,0.00,Rainwise IP-100,2013-04-24 23:08:00,
2013-04-24 17:13:00,55.0,16.0,25.82,WSW,247,4.7,9.1,20,0.00,,,0.00,Rainwise IP-100,2013-04-24 23:13:00,
2013-04-24 17:18:00,54.6,16.0,25.82,WSW,247,5.1,10.0,20,0.00,,,0.00,Rainwise IP-100,2013-04-24 23:18:00,
2013-04-24 17:23:00,54.6,16.0,25.82,West,270,2.8,9.6,20,0.00,,,0.00,Rainwise IP-100,2013-04-24 23:23:00,
2013-04-24 17:28:00,55.1,16.0,25.83,NNW,337,3.0,6.8,20,0.00,,,0.00,Rainwise IP-100,2013-04-24 23:28:00,
2013-04-24 17:33:00,55.8,16.0,25.82,ENE,67,0.0,5.6,19,0.00,,,0.00,Rainwise IP-100,2013-04-24 23:33:00,
2013-04-24 17:38:00,55.8,16.0,25.83,West,270,1.4,7.5,20,0.00,,,0.00,Rainwise IP-100,2013-04-24 23:38:00,
2013-04-24 17:43:00,55.6,16.0,25.83,NNW,337,3.5,9.6,20,0.00,,,0.00,Rainwise IP-100,2013-04-24 23:43:00,
2013-04-24 17:48:00,56.0,16.0,25.83,NNE,22,7.0,7.0,20,0.00,,,0.00,Rainwise IP-100,2013-04-24 23:48:00,
2013-04-24 17:53:00,55.7,16.0,25.83,SSE,157,0.0,7.5,20,0.00,,,0.00,Rainwise IP-100,2013-04-24 23:53:00,
2013-04-24 17:58:00,55.3,16.0,25.83,West,270,2.8,4.7,20,0.00,,,0.00,Rainwise IP-100,2013-04-24 23:58:00,
2013-04-24 18:03:00,55.4,16.0,25.83,NNW,337,3.5,5.6,20,0.00,,,0.00,Rainwise IP-100,2013-04-25 00:03:00,
2013-04-24 18:08:00,55.4,16.0,25.83,NNE,22,1.4,8.6,20,0.00,,,0.00,Rainwise IP-100,2013-04-25 00:08:00,
2013-04-24 18:13:00,55.7,16.0,25.83,WSW,247,6.5,7.0,21,0.00,,,0.00,Rainwise IP-100,2013-04-25 00:13:00,
2013-04-24 18:18:00,55.4,16.0,25.83,NNW,337,9.6,9.6,21,0.00,,,0.00,Rainwise IP-100,2013-04-25 00:18:00,
2013-04-24 18:23:00,55.3,16.0,25.83,NNW,337,4.4,12.8,21,0.00,,,0.00,Rainwise IP-100,2013-04-25 00:23:00,
2013-04-24 18:28:00,55.2,18.0,25.83,NNW,337,2.6,12.4,22,0.00,,,0.00,Rainwise IP-100,2013-04-25 00:28:00,
2013-04-24 18:33:00,54.8,18.0,25.83,NNE,22,7.2,9.1,22,0.00,,,0.00,Rainwise IP-100,2013-04-25 00:33:00,
2013-04-24 18:38:00,54.3,16.0,25.83,NNE,22,6.3,11.4,22,0.00,,,0.00,Rainwise IP-100,2013-04-25 00:38:00,
2013-04-24 18:43:00,53.9,18.0,25.83,NNW,337,4.9,12.6,23,0.00,,,0.00,Rainwise IP-100,2013-04-25 00:43:00,
2013-04-24 18:48:00,53.5,18.0,25.83,North,360,11.4,13.8,24,0.00,,,0.00,Rainwise IP-100,2013-04-25 00:48:00,
2013-04-24 18:53:00,53.0,18.0,25.83,NNE,22,10.0,12.8,25,0.00,,,0.00,Rainwise IP-100,2013-04-25 00:53:00,
2013-04-24 18:58:00,52.7,18.0,25.83,NNE,22,2.8,11.4,25,0.00,,,0.00,Rainwise IP-100,2013-04-25 00:58:00,
2013-04-24 19:03:00,52.5,18.0,25.83,North,360,8.6,9.3,26,0.00,,,0.00,Rainwise IP-100,2013-04-25 01:03:00,
2013-04-24 19:08:00,52.1,21.0,25.84,NNE,22,7.0,10.5,27,0.00,,,0.00,Rainwise IP-100,2013-04-25 01:08:00,
2013-04-24 19:13:00,51.6,21.0,25.84,North,360,8.2,11.2,27,0.00,,,0.00,Rainwise IP-100,2013-04-25 01:13:00,
2013-04-24 19:18:00,51.0,21.0,25.84,NNE,22,6.3,9.3,29,0.00,,,0.00,Rainwise IP-100,2013-04-25 01:18:00,
2013-04-24 19:23:00,50.3,21.0,25.84,NNE,22,4.9,7.0,31,0.00,,,0.00,Rainwise IP-100,2013-04-25 01:23:00,
2013-04-24 19:28:00,49.7,23.0,25.85,NNE,22,7.7,7.7,32,0.00,,,0.00,Rainwise IP-100,2013-04-25 01:28:00,
2013-04-24 19:33:00,49.2,23.0,25.85,NNE,22,7.7,8.2,33,0.00,,,0.00,Rainwise IP-100,2013-04-25 01:33:00,
2013-04-24 19:38:00,48.9,23.0,25.85,NNE,22,6.8,8.6,33,0.00,,,0.00,Rainwise IP-100,2013-04-25 01:38:00,
2013-04-24 19:43:00,48.5,23.0,25.85,NE,45,4.9,7.9,33,0.00,,,0.00,Rainwise IP-100,2013-04-25 01:43:00,
2013-04-24 19:48:00,47.9,23.0,25.85,ENE,67,6.3,7.0,34,0.00,,,0.00,Rainwise IP-100,2013-04-25 01:48:00,
2013-04-24 19:53:00,47.5,23.0,25.86,NNE,22,6.5,7.5,35,0.00,,,0.00,Rainwise IP-100,2013-04-25 01:53:00,
2013-04-24 19:58:00,47.5,23.0,25.86,NNE,22,7.2,8.2,35,0.00,,,0.00,Rainwise IP-100,2013-04-25 01:58:00,
2013-04-24 20:03:00,47.6,21.0,25.86,NNE,22,7.0,8.6,34,0.00,,,0.00,Rainwise IP-100,2013-04-25 02:03:00,
2013-04-24 20:08:00,47.4,21.0,25.86,NNE,22,7.7,8.9,34,0.00,,,0.00,Rainwise IP-100,2013-04-25 02:08:00,
2013-04-24 20:13:00,47.2,21.0,25.86,ENE,67,7.9,10.0,35,0.00,,,0.00,Rainwise IP-100,2013-04-25 02:13:00,
2013-04-24 20:18:00,47.2,21.0,25.86,NNE,22,9.3,10.5,34,0.00,,,0.00,Rainwise IP-100,2013-04-25 02:18:00,
2013-04-24 20:23:00,47.2,21.0,25.86,NNE,22,7.0,10.3,34,0.00,,,0.00,Rainwise IP-100,2013-04-25 02:23:00,
2013-04-24 20:28:00,47.1,21.0,25.87,NNE,22,7.7,9.8,34,0.00,,,0.00,Rainwise IP-100,2013-04-25 02:28:00,
2013-04-24 20:33:00,46.8,21.0,25.87,NNE,22,9.8,10.7,34,0.00,,,0.00,Rainwise IP-100,2013-04-25 02:33:00,
2013-04-24 20:38:00,46.3,21.0,25.87,NNE,22,7.9,10.0,35,0.00,,,0.00,Rainwise IP-100,2013-04-25 02:38:00,
2013-04-24 20:43:00,45.9,21.0,25.88,NNE,22,6.5,10.7,36,0.00,,,0.00,Rainwise IP-100,2013-04-25 02:43:00,
2013-04-24 20:48:00,45.4,21.0,25.88,NNE,22,6.5,9.8,37,0.00,,,0.00,Rainwise IP-100,2013-04-25 02:48:00,
2013-04-24 20:53:00,44.2,21.0,25.88,ENE,67,4.4,9.8,39,0.00,,,0.00,Rainwise IP-100,2013-04-25 02:53:00,
2013-04-24 20:58:00,43.6,23.0,25.88,ENE,67,3.3,9.6,40,0.00,,,0.00,Rainwise IP-100,2013-04-25 02:58:00,
2013-04-24 21:03:00,43.0,23.0,25.89,ENE,67,4.2,7.0,42,0.00,,,0.00,Rainwise IP-100,2013-04-25 03:03:00,
2013-04-24 21:08:00,42.0,23.0,25.89,ENE,67,5.1,6.5,44,0.00,,,0.00,Rainwise IP-100,2013-04-25 03:08:00,
2013-04-24 21:13:00,41.4,23.0,25.89,ENE,67,3.3,5.4,46,0.00,,,0.00,Rainwise IP-100,2013-04-25 03:13:00,
2013-04-24 21:18:00,40.3,23.0,25.89,East,90,3.3,5.6,48,0.00,,,0.00,Rainwise IP-100,2013-04-25 03:18:00,
2013-04-24 21:23:00,39.6,24.0,25.89,East,90,3.5,4.4,50,0.00,,,0.00,Rainwise IP-100,2013-04-25 03:23:00,
2013-04-24 21:28:00,39.1,23.0,25.89,ENE,67,3.5,5.8,51,0.00,,,0.00,Rainwise IP-100,2013-04-25 03:28:00,
2013-04-24 21:33:00,38.7,24.0,25.89,ENE,67,4.0,5.4,53,0.00,,,0.00,Rainwise IP-100,2013-04-25 03:33:00,
2013-04-24 21:38:00,38.3,23.0,25.89,ENE,67,3.5,4.7,54,0.00,,,0.00,Rainwise IP-100,2013-04-25 03:38:00,
2013-04-24 21:43:00,38.2,24.0,25.90,ENE,67,1.6,4.0,55,0.00,,,0.00,Rainwise IP-100,2013-04-25 03:43:00,
2013-04-24 21:48:00,38.2,24.0,25.90,ENE,67,1.9,2.8,55,0.00,,,0.00,Rainwise IP-100,2013-04-25 03:48:00,
2013-04-24 21:54:00,38.1,24.0,25.90,NE,45,3.3,3.7,55,0.00,,,0.00,Rainwise IP-100,2013-04-25 03:54:00,
2013-04-24 21:59:00,37.8,24.0,25.90,NE,45,1.9,3.3,56,0.00,,,0.00,Rainwise IP-100,2013-04-25 03:59:00,
2013-04-24 22:01:00,37.8,24.0,25.90,ENE,67,2.1,3.3,56,0.00,,,0.00,Rainwise IP-100,2013-04-25 04:01:00,
2013-04-24 22:06:00,37.6,24.0,25.90,ENE,67,1.6,3.3,57,0.00,,,0.00,Rainwise IP-100,2013-04-25 04:06:00,
2013-04-24 22:11:00,37.9,24.0,25.91,NE,45,3.0,4.4,58,0.00,,,0.00,Rainwise IP-100,2013-04-25 04:11:00,
2013-04-24 22:16:00,38.3,24.0,25.90,NE,45,2.3,3.7,58,0.00,,,0.00,Rainwise IP-100,2013-04-25 04:16:00,
2013-04-24 22:21:00,38.2,24.0,25.90,NNE,22,4.0,4.7,58,0.00,,,0.00,Rainwise IP-100,2013-04-25 04:21:00,
2013-04-24 22:26:00,37.7,24.0,25.90,NNE,22,1.6,5.1,58,0.00,,,0.00,Rainwise IP-100,2013-04-25 04:26:00,
2013-04-24 22:31:00,37.0,24.0,25.90,NNE,22,0.0,2.8,60,0.00,,,0.00,Rainwise IP-100,2013-04-25 04:31:00,
2013-04-24 22:36:00,36.5,24.0,25.91,NNE,22,0.0,0.0,61,0.00,,,0.00,Rainwise IP-100,2013-04-25 04:36:00,
2013-04-24 22:41:00,36.3,24.0,25.91,NNE,22,1.2,1.9,62,0.00,,,0.00,Rainwise IP-100,2013-04-25 04:41:00,
2013-04-24 22:46:00,36.2,24.0,25.91,NNW,337,2.6,2.6,62,0.00,,,0.00,Rainwise IP-100,2013-04-25 04:46:00,
2013-04-24 22:51:00,36.5,26.0,25.90,WNW,292,1.2,2.8,62,0.00,,,0.00,Rainwise IP-100,2013-04-25 04:51:00,
2013-04-24 22:56:00,36.8,24.0,25.90,WNW,292,1.2,1.6,61,0.00,,,0.00,Rainwise IP-100,2013-04-25 04:56:00,
2013-04-24 23:01:00,36.8,24.0,25.89,WNW,292,0.0,1.6,61,0.00,,,0.00,Rainwise IP-100,2013-04-25 05:01:00,
2013-04-24 23:06:00,36.6,26.0,25.89,WNW,292,0.0,1.4,62,0.00,,,0.00,Rainwise IP-100,2013-04-25 05:06:00,
2013-04-24 23:11:00,36.6,26.0,25.89,WNW,292,2.6,2.6,62,0.00,,,0.00,Rainwise IP-100,2013-04-25 05:11:00,
2013-04-24 23:16:00,36.9,24.0,25.89,WNW,292,3.5,3.7,61,0.00,,,0.00,Rainwise IP-100,2013-04-25 05:16:00,
2013-04-24 23:21:00,36.6,24.0,25.89,WNW,292,3.0,3.7,61,0.00,,,0.00,Rainwise IP-100,2013-04-25 05:21:00,
2013-04-24 23:26:00,36.2,24.0,25.89,NW,315,4.2,5.1,62,0.00,,,0.00,Rainwise IP-100,2013-04-25 05:26:00,
2013-04-24 23:31:00,36.2,24.0,25.89,NW,315,2.8,5.6,62,0.00,,,0.00,Rainwise IP-100,2013-04-25 05:31:00,
2013-04-24 23:36:00,35.4,24.0,25.89,NW,315,2.3,4.0,63,0.00,,,0.00,Rainwise IP-100,2013-04-25 05:36:00,
2013-04-24 23:41:00,34.2,24.0,25.89,NNW,337,4.7,4.7,65,0.00,,,0.00,Rainwise IP-100,2013-04-25 05:41:00,
2013-04-24 23:46:00,33.7,24.0,25.89,NNW,337,2.3,4.9,67,0.00,,,0.00,Rainwise IP-100,2013-04-25 05:46:00,
2013-04-24 23:51:00,33.4,24.0,25.89,NNW,337,1.6,3.5,69,0.00,,,0.00,Rainwise IP-100,2013-04-25 05:51:00,
2013-04-24 23:56:00,33.2,24.0,25.88,NW,315,4.0,4.7,70,0.00,,,0.00,Rainwise IP-100,2013-04-25 05:56:00,